Total_Precipitation_Accumulation
1.00 1.19 1.03 0.70 0.65 0.56 0.50 0.58 0.49 0.34 0.33 0.43 0.42 0.34 0.24 0.23 0.30 0.38 0.41 0.45 0.38 0.42 0.45 0.48 0.56 0.62 0.77 0.85 0.89 0.99 1.03 1.21 1.35 1.49 1.66 1.70 1.63 1.53 1.50 1.45 1.41 1.39 1.46 1.53
1.13 1.00 0.54 0.37 0.45 0.54 0.59 0.67 0.53 0.37 0.31 0.48 0.47 0.37 0.26 0.24 0.28 0.37 0.37 0.44 0.44 0.44 0.49 0.53 0.60 0.63 0.77 0.88 0.88 0.98 1.08 1.19 1.25 1.34 1.46 1.59 1.62 1.57 1.52 1.46 1.46 1.39 1.37 1.42
0.84 0.57 0.31 0.47 0.61 0.73 0.69 0.61 0.49 0.45 0.43 0.53 0.59 0.54 0.33 0.27 0.24 0.33 0.38 0.43 0.51 0.52 0.55 0.56 0.61 0.64 0.76 0.88 0.90 0.94 1.07 1.19 1.25 1.37 1.49 1.62 1.81 1.79 1.72 1.58 1.48 1.39 1.36 1.34
0.61 0.36 0.36 0.57 0.67 0.75 0.73 0.42 0.43 0.50 0.76 0.85 0.73 0.83 0.41 0.29 0.27 0.32 0.39 0.43 0.51 0.52 0.54 0.59 0.59 0.64 0.72 0.80 0.91 0.96 1.10 1.21 1.25 1.42 1.54 1.51 1.63 1.67 1.53 1.39 1.38 1.36 1.32 1.32
0.77 0.42 0.44 0.56 0.49 0.55 0.58 0.37 0.48 0.61 0.84 0.99 0.74 0.81 0.46 0.26 0.32 0.33 0.35 0.38 0.47 0.51 0.46 0.52 0.55 0.55 0.64 0.74 0.87 0.96 1.10 1.24 1.29 1.36 1.52 1.54 1.46 1.46 1.49 1.46 1.40 1.42 1.40 1.34
0.62 0.42 0.49 0.45 0.34 0.42 0.56 0.67 0.81 0.92 1.32 1.56 0.65 0.62 0.51 0.44 0.51 0.41 0.35 0.36 0.46 0.50 0.46 0.48 0.48 0.48 0.58 0.73 0.85 0.96 1.06 1.17 1.26 1.30 1.43 1.57 1.50 1.41 1.42 1.47 1.47 1.45 1.48 1.43
0.78 0.56 0.47 0.42 0.55 0.69 0.93 1.40 2.06 2.21 2.19 1.32 0.35 0.46 0.57 0.47 0.45 0.48 0.45 0.41 0.43 0.48 0.49 0.48 0.42 0.45 0.51 0.62 0.77 0.88 1.04 1.11 1.15 1.20 1.30 1.37 1.48 1.43 1.34 1.29 1.33 1.41 1.46 1.43
0.90 0.75 0.55 0.48 0.62 0.89 1.00 1.25 1.65 1.64 1.12 0.50 0.28 0.45 0.49 0.36 0.30 0.31 0.33 0.39 0.42 0.45 0.45 0.42 0.40 0.44 0.47 0.51 0.62 0.75 0.86 1.04 1.15 1.18 1.21 1.26 1.33 1.44 1.34 1.25 1.21 1.27 1.34 1.29
0.90 0.64 0.39 0.37 0.37 0.57 0.88 0.97 0.83 1.09 0.79 0.54 0.44 0.39 0.31 0.15 0.15 0.18 0.23 0.33 0.43 0.47 0.47 0.42 0.39 0.42 0.44 0.52 0.58 0.70 0.77 0.92 1.11 1.22 1.21 1.22 1.26 1.33 1.33 1.25 1.22 1.22 1.24 1.27
0.98 0.77 0.39 0.36 0.48 0.61 0.71 0.86 1.07 1.47 1.23 0.70 0.44 0.40 0.44 0.29 0.26 0.22 0.24 0.32 0.41 0.47 0.51 0.46 0.40 0.41 0.42 0.48 0.56 0.62 0.73 0.84 0.97 1.15 1.27 1.24 1.21 1.21 1.28 1.29 1.28 1.25 1.22 1.25
0.95 1.00 0.62 0.56 0.78 0.83 0.80 1.08 1.35 1.40 1.06 0.84 0.56 0.54 0.54 0.43 0.39 0.33 0.29 0.34 0.43 0.45 0.49 0.46 0.40 0.37 0.40 0.45 0.57 0.63 0.69 0.79 0.88 0.98 1.14 1.23 1.22 1.22 1.27 1.29 1.24 1.26 1.24 1.22
0.90 1.17 0.82 0.51 0.49 0.49 0.69 0.93 1.17 1.43 1.04 0.65 0.60 0.57 0.41 0.35 0.35 0.32 0.30 0.30 0.35 0.39 0.42 0.42 0.38 0.37 0.41 0.48 0.55 0.66 0.71 0.72 0.78 0.86 0.99 1.13 1.19 1.22 1.26 1.24 1.24 1.28 1.30 1.26
1.33 1.70 1.41 0.93 0.77 0.71 0.82 0.75 0.82 1.00 0.98 0.67 0.56 0.49 0.28 0.21 0.22 0.24 0.28 0.28 0.30 0.36 0.42 0.44 0.43 0.42 0.43 0.50 0.54 0.62 0.70 0.68 0.70 0.82 0.92 1.05 1.14 1.15 1.19 1.14 1.17 1.31 1.42 1.39
1.64 1.74 1.24 1.00 0.84 0.79 0.73 0.58 0.58 0.91 1.12 0.64 0.37 0.35 0.23 0.19 0.20 0.24 0.29 0.31 0.32 0.34 0.37 0.43 0.49 0.49 0.46 0.47 0.51 0.54 0.63 0.67 0.70 0.76 0.89 0.98 1.07 1.06 1.05 1.05 1.04 1.16 1.32 1.43
1.37 1.38 0.63 0.34 0.28 0.38 0.44 0.40 0.44 0.59 0.58 0.50 0.31 0.28 0.28 0.26 0.27 0.29 0.31 0.31 0.31 0.31 0.35 0.42 0.50 0.52 0.53 0.54 0.54 0.53 0.57 0.67 0.73 0.73 0.83 0.88 0.97 1.05 1.02 0.99 1.02 1.09 1.20 1.27
1.25 1.24 0.63 0.35 0.21 0.28 0.34 0.29 0.29 0.33 0.29 0.27 0.21 0.24 0.26 0.25 0.22 0.23 0.25 0.28 0.31 0.31 0.33 0.36 0.41 0.47 0.54 0.59 0.59 0.59 0.60 0.65 0.72 0.73 0.79 0.83 0.93 1.04 1.07 1.01 1.01 1.11 1.19 1.21
1.24 1.26 1.10 0.63 0.27 0.48 0.54 0.34 0.30 0.31 0.30 0.26 0.30 0.31 0.26 0.23 0.23 0.27 0.27 0.28 0.29 0.30 0.31 0.30 0.36 0.46 0.52 0.58 0.58 0.61 0.64 0.67 0.72 0.74 0.77 0.83 0.92 0.97 1.04 1.05 1.06 1.13 1.22 1.22
1.04 1.22 1.48 1.00 0.71 0.98 0.52 0.25 0.25 0.30 0.31 0.29 0.28 0.23 0.23 0.26 0.27 0.31 0.29 0.30 0.30 0.31 0.34 0.32 0.37 0.46 0.48 0.53 0.53 0.57 0.57 0.69 0.77 0.78 0.77 0.81 0.89 0.92 1.02 1.07 1.09 1.19 1.25 1.20
0.58 1.10 1.63 1.36 0.98 0.52 0.29 0.26 0.35 0.43 0.43 0.32 0.25 0.18 0.17 0.21 0.26 0.32 0.27 0.28 0.32 0.33 0.37 0.37 0.39 0.45 0.43 0.49 0.52 0.53 0.52 0.63 0.74 0.80 0.74 0.75 0.83 0.90 0.99 1.05 1.11 1.18 1.27 1.22
0.57 1.03 1.73 1.48 1.09 0.54 0.36 0.24 0.27 0.40 0.56 0.33 0.24 0.21 0.20 0.24 0.37 0.38 0.31 0.29 0.29 0.30 0.34 0.38 0.40 0.42 0.42 0.46 0.49 0.48 0.52 0.57 0.68 0.76 0.68 0.70 0.76 0.82 0.93 1.00 1.07 1.13 1.14 1.14
0.99 1.48 1.67 1.22 0.97 0.41 0.28 0.24 0.29 0.62 0.69 0.35 0.28 0.28 0.28 0.35 0.40 0.36 0.33 0.33 0.34 0.34 0.33 0.35 0.38 0.41 0.43 0.44 0.45 0.46 0.52 0.56 0.61 0.71 0.66 0.70 0.73 0.77 0.86 0.95 0.98 1.05 1.10 1.08
0.81 1.09 1.05 0.93 1.01 0.53 0.30 0.36 0.61 0.70 0.38 0.30 0.30 0.28 0.30 0.30 0.28 0.28 0.30 0.35 0.42 0.41 0.36 0.36 0.38 0.40 0.40 0.41 0.44 0.46 0.49 0.53 0.59 0.65 0.66 0.72 0.77 0.78 0.82 0.89 0.90 0.94 1.04 1.08
0.58 0.78 0.86 0.80 0.66 0.44 0.38 0.46 0.50 0.41 0.34 0.28 0.29 0.29 0.30 0.28 0.27 0.30 0.32 0.36 0.43 0.44 0.40 0.39 0.40 0.38 0.38 0.39 0.45 0.51 0.53 0.53 0.61 0.64 0.65 0.72 0.80 0.82 0.83 0.84 0.86 0.91 0.98 1.06
0.47 0.46 0.57 0.53 0.39 0.30 0.29 0.30 0.29 0.27 0.28 0.27 0.27 0.29 0.30 0.29 0.26 0.30 0.33 0.35 0.38 0.41 0.44 0.44 0.44 0.41 0.40 0.39 0.45 0.53 0.57 0.55 0.60 0.63 0.63 0.69 0.74 0.80 0.84 0.80 0.78 0.81 0.91 1.03
0.38 0.41 0.45 0.41 0.27 0.25 0.24 0.23 0.23 0.21 0.19 0.20 0.21 0.22 0.24 0.26 0.26 0.30 0.33 0.35 0.40 0.42 0.46 0.46 0.47 0.46 0.46 0.44 0.48 0.54 0.56 0.55 0.59 0.58 0.58 0.62 0.65 0.75 0.86 0.85 0.79 0.79 0.81 0.98
0.26 0.33 0.40 0.36 0.26 0.31 0.27 0.22 0.22 0.22 0.20 0.21 0.22 0.20 0.19 0.21 0.25 0.27 0.30 0.32 0.40 0.45 0.46 0.47 0.47 0.48 0.52 0.50 0.52 0.54 0.55 0.53 0.53 0.55 0.54 0.57 0.61 0.68 0.77 0.82 0.84 0.92 0.90 0.93